SKYSAT-C1 (41601 NORAD) Tracking and Keplerian Element Data

This shows tracking and keplerian element data for the satellite.

Feedback or suggestion? Click here.




ElementValue
Catalog41601
NameSKYSAT-C1
Epoch Orbit13285
Epoch Day316.53940166
Epoch Year2018
RAAN31.6031
Inclination97.5589
Eccentricity0.0002184
Argument of Perigee109.4004
Mean Anonmoly14.4432
Mean Motion15.23142962
Decay Rate7.11E-06
L11 41601U 16040C 18316.53940166 .00000711 00000-0 33185-4 0 9999
L22 41601 97.5589 31.6031 0002184 109.4004 14.4432 15.23142962132856

Live tracking and technical data element details for SKYSAT-C1 (NORAD 41601). SKYSAT-C1 can be tracked NOW for your location showing map with azimuth and elevation plus other details from your city location.

Track the satellite on the map from your city or location and see movement details for azimuth, elevation, latitude, longitude, range, height, and movement on the map or in text.







IsCatalogInMostPopularTable: catalog: 41601, numindb: 76
Update: records affected: 1



GetName: 41601 SKYSAT-C1

Hit Count: updated at: Mon, 12 Nov 2018 21:47:15 GMT